FW1697 Weather Reports


time (UTC)temp
C
wind
direction
speed
KPH
gust
KPH
rain 1hr
cm
rain 24hr
cm
rain mn
cm
humidity
%
barometer
mb
20260506073205 6 57 9.7 24.1 0.00 0.00 0.00 78 1015.7
20260506072706 6 59 11.3 24.1 0.00 0.00 0.00 80 1015.7
20260506072205 6 53 8.0 22.5 0.00 0.00 0.00 83 1015.6
20260506071705 5 50 8.0 16.1 0.00 0.00 0.00 84 1015.6
20260506071205 5 64 12.9 22.5 0.00 0.00 0.00 85 1015.6
20260506070705 5 46 11.3 22.5 0.00 0.00 0.00 87 1015.5
20260506070205 5 49 8.0 22.5 0.00 0.00 0.00 89 1015.5
20260506062205 4 35 1.6 3.2 0.00 0.00 0.00 91 1015.4
20260506061706 3 21 1.6 1.6 0.00 0.00 0.00 91 1015.4
20260506061206 3 1 1.6 3.2 0.00 0.00 0.00 91 1015.4
20260506060705 3 4 4.8 12.9 0.00 0.00 0.00 91 1015.3
20260506060205 3 22 8.0 12.9 0.00 0.00 0.00 92 1015.3
20260506051207 2 38 3.2 4.8 0.00 0.00 0.00 92 1015.3
20260506050705 2 68 1.6 3.2 0.00 0.00 0.00 91 1015.3
20260506050205 1 41 0.0 1.6 0.00 0.00 0.00 91 1015.3
20260506044706 1 60 0.0 1.6 0.00 0.00 0.00 91 1015.2
20260506044205 1 57 0.0 3.2 0.00 0.00 0.00 90 1015.3
20260506043705 1 47 0.0 1.6 0.00 0.00 0.00 90 1015.2
20260506043205 2 27 1.6 1.6 0.00 0.00 0.00 90 1015.2
20260506042705 2 18 0.0 1.6 0.00 0.00 0.00 90 1015.2
20260506041705 2 10 0.0 1.6 0.00 0.00 0.00 90 1015.2
20260506041205 2 29 0.0 1.6 0.00 0.00 0.00 90 1015.2
20260506040705 2 36 0.0 1.6 0.00 0.00 0.00 90 1015.2
20260506040206 2 37 0.0 1.6 0.00 0.00 0.00 90 1015.3
20260506035707 2 37 0.0 0.0 0.00 0.00 0.00 90 1015.2
20260506034705 2 37 1.6 1.6 0.00 0.00 0.00 90 1015.3
20260506034206 2 37 0.0 1.6 0.00 0.00 0.00 90 1015.3
20260506033706 2 37 1.6 3.2 0.00 0.00 0.00 90 1015.3
20260506033206 3 32 1.6 8.0 0.00 0.00 0.00 90 1015.3
20260506032706 3 3 3.2 8.0 0.00 0.00 0.00 90 1015.3
20260506031707 3 1 1.6 8.0 0.00 0.00 0.00 90 1015.3
20260506031206 3 6 1.6 8.0 0.00 0.00 0.00 90 1015.3
20260506030706 3 1 1.6 8.0 0.00 0.00 0.00 91 1015.3
20260506025706 3 1 1.6 9.7 0.00 0.00 0.00 91 1015.3
20260506024705 2 50 1.6 3.2 0.00 0.00 0.00 90 1015.3
20260506024207 2 50 0.0 1.6 0.00 0.00 0.00 90 1015.4
20260506023706 2 49 1.6 3.2 0.00 0.00 0.00 90 1015.3
20260506023205 2 55 0.0 3.2 0.00 0.00 0.00 90 1015.3
20260506022706 2 65 1.6 3.2 0.00 0.00 0.00 90 1015.3
20260506022206 2 0 0.0 1.6 0.00 0.00 0.00 90 1015.4
20260506021206 2 3 1.6 3.2 0.00 0.00 0.00 89 1015.4
20260506020705 2 0 1.6 8.0 0.00 0.00 0.00 89 1015.4
20260506020206 2 6 1.6 8.0 0.00 0.00 0.00 89 1015.4
20260506015206 2 24 0.0 4.8 0.00 0.00 0.00 88 1015.5
20260506014706 2 35 1.6 3.2 0.00 0.00 0.00 88 1015.4
20260506014206 2 40 0.0 1.6 0.00 0.00 0.00 88 1015.5
20260506013704 2 51 0.0 3.2 0.00 0.00 0.00 88 1015.4
20260506013206 2 55 1.6 3.2 0.00 0.00 0.00 88 1015.4
20260506012706 2 47 1.6 3.2 0.00 0.00 0.00 88 1015.4
20260506011705 3 5 1.6 3.2 0.00 0.00 0.00 88 1015.4
20260506011206 3 28 1.6 1.6 0.00 0.00 0.00 88 1015.4
20260506010206 3 22 1.6 8.0 0.00 0.00 0.00 88 1015.4
20260506005706 3 8 3.2 8.0 0.00 0.00 0.00 88 1015.5
20260506005206 2 13 1.6 9.7 0.00 0.00 0.00 88 1015.5
20260506004205 2 359 6.4 11.3 0.00 0.00 0.00 87 1015.6
20260506003706 2 0 3.2 8.0 0.00 0.00 0.00 87 1015.6
20260506003206 2 19 1.6 3.2 0.00 0.00 0.00 86 1015.6
20260506002706 2 22 1.6 3.2 0.00 0.00 0.00 86 1015.6
20260506002205 2 21 0.0 1.6 0.00 0.00 0.00 87 1015.7
20260506001706 2 1 0.0 3.2 0.00 0.00 0.00 87 1015.6
20260506000726 3 1 3.2 8.0 0.00 0.00 0.00 87 1015.7
20260506000206 3 0 3.2 8.0 0.00 0.00 0.00 87 1015.7
20260505235206 3 0 3.2 8.0 0.00 0.00 0.00 87 1015.8
20260505234706 3 0 1.6 3.2 0.00 0.00 0.00 87 1015.8
20260505234206 3 3 0.0 3.2 0.00 0.00 0.00 86 1015.8
20260505233205 3 1 1.6 1.6 0.00 0.00 0.00 85 1015.9
20260505231706 3 7 0.0 1.6 0.00 0.00 0.00 84 1016.0
20260505230712 3 0 3.2 8.0 0.00 0.00 0.00 84 1015.9
20260505230205 3 0 1.6 3.2 0.00 0.00 0.00 84 1016.0
20260505225206 4 1 1.6 3.2 0.00 0.00 0.00 84 1016.0
20260505224707 4 3 1.6 9.7 0.00 0.00 0.00 84 1015.9
20260505224205 4 6 1.6 3.2 0.00 0.00 0.00 83 1015.9
20260505223705 4 17 1.6 3.2 0.00 0.00 0.00 83 1015.9
20260505223206 4 29 3.2 4.8 0.00 0.00 0.00 83 1015.9
20260505222706 5 36 1.6 8.0 0.00 0.00 0.00 83 1015.9
20260505222206 5 27 3.2 8.0 0.00 0.00 0.00 84 1016.0
20260505221706 5 49 1.6 8.0 0.00 0.00 0.00 84 1016.0
20260505221205 5 31 3.2 8.0 0.00 0.00 0.00 84 1016.0
20260505220705 5 42 1.6 8.0 0.00 0.00 0.00 84 1016.0
20260505215706 5 40 4.8 11.3 0.00 0.00 0.00 85 1016.0
20260505215206 5 46 4.8 9.7 0.00 0.00 0.00 85 1016.0
20260505214705 5 46 4.8 9.7 0.00 0.00 0.00 85 1016.0
20260505214206 5 42 3.2 9.7 0.00 0.00 0.00 85 1016.1
20260505213706 5 35 3.2 11.3 0.00 0.00 0.00 85 1016.1
20260505212205 5 35 3.2 12.9 0.00 0.00 0.00 85 1016.1
20260505211706 5 32 4.8 12.9 0.00 0.00 0.00 85 1016.1
20260505211205 5 30 3.2 11.3 0.00 0.00 0.00 85 1016.2
20260505210706 5 24 6.4 12.9 0.00 0.00 0.00 85 1016.2
20260505210206 5 24 6.4 12.9 0.00 0.00 0.00 85 1016.2
20260505205707 5 37 6.4 12.9 0.00 0.00 0.00 85 1016.2
20260505205207 5 37 4.8 11.3 0.00 0.00 0.00 85 1016.3
20260505204707 5 33 4.8 16.1 0.00 0.00 0.00 85 1016.3
20260505204207 5 33 3.2 12.9 0.00 0.00 0.00 86 1016.2
20260505203707 5 45 4.8 11.3 0.00 0.00 0.00 86 1016.2
20260505203206 5 41 6.4 14.5 0.00 0.00 0.00 86 1016.2
20260505202706 5 42 4.8 9.7 0.00 0.00 0.00 86 1016.2
20260505202206 5 27 4.8 11.3 0.00 0.00 0.00 86 1016.1
20260505201707 5 39 3.2 9.7 0.00 0.00 0.00 86 1016.1
20260505201206 5 37 4.8 12.9 0.00 0.00 0.00 86 1016.1
20260505200706 5 52 4.8 14.5 0.00 0.00 0.00 86 1016.1
20260505200206 5 42 4.8 12.9 0.00 0.00 0.00 86 1016.1
20260505195706 5 38 8.0 16.1 0.00 0.00 0.00 86 1016.0
20260505194706 5 50 6.4 16.1 0.00 0.00 0.00 86 1016.0
20260505193706 5 32 6.4 20.9 0.00 0.00 0.00 86 1015.9
20260505192705 5 39 4.8 19.3 0.00 0.00 0.00 86 1015.9
20260505192206 5 55 4.8 16.1 0.00 0.00 0.00 86 1015.7
20260505191705 6 33 9.7 27.4 0.00 0.00 0.00 86 1015.8
20260505191206 6 35 9.7 20.9 0.00 0.00 0.00 86 1015.7
20260505190705 6 30 9.7 16.1 0.00 0.00 0.00 86 1015.7
20260505190206 6 42 9.7 16.1 0.00 0.00 0.00 86 1015.7
20260505185706 6 34 8.0 19.3 0.00 0.00 0.00 86 1015.7
20260505185206 6 54 6.4 11.3 0.00 0.00 0.00 86 1015.7
20260505184706 6 57 6.4 20.9 0.00 0.00 0.00 85 1015.5
20260505184206 6 40 4.8 9.7 0.00 0.00 0.00 85 1015.5
20260505183706 6 44 6.4 12.9 0.00 0.00 0.00 85 1015.5
20260505183206 6 43 9.7 20.9 0.00 0.00 0.00 85 1015.4
20260505182706 6 32 9.7 20.9 0.00 0.00 0.00 86 1015.5
20260505182206 6 46 11.3 22.5 0.00 0.00 0.00 85 1015.4
20260505181706 6 34 9.7 12.9 0.00 0.00 0.00 85 1015.4
20260505181205 6 31 8.0 11.3 0.00 0.00 0.00 84 1015.5
20260505180705 6 46 6.4 20.9 0.00 0.00 0.00 84 1015.5
20260505180206 6 44 8.0 20.9 0.00 0.00 0.00 84 1015.5
20260505175207 6 31 8.0 16.1 0.00 0.00 0.00 83 1015.5
20260505174706 6 38 8.0 16.1 0.00 0.00 0.00 83 1015.5
20260505174206 6 38 4.8 12.9 0.00 0.00 0.00 83 1015.5
20260505173705 6 34 8.0 16.1 0.00 0.00 0.00 83 1015.5
20260505172206 7 33 8.0 22.5 0.00 0.00 0.00 82 1015.5
20260505170205 7 25 9.7 12.9 0.00 0.00 0.00 82 1015.5
20260505165706 7 20 11.3 20.9 0.00 0.00 0.00 82 1015.5
20260505164705 7 22 9.7 16.1 0.00 0.00 0.00 84 1015.3
20260505164206 7 34 8.0 16.1 0.00 0.00 0.00 83 1015.3
20260505163705 7 36 9.7 19.3 0.00 0.00 0.00 83 1015.3
20260505163205 7 8 9.7 19.3 0.00 0.00 0.00 83 1015.3
20260505162706 7 43 9.7 20.9 0.00 0.00 0.00 82 1015.3
20260505162205 7 20 11.3 22.5 0.00 0.00 0.00 82 1015.3
20260505161706 7 32 11.3 22.5 0.00 0.00 0.00 82 1015.2
20260505160705 7 30 11.3 19.3 0.00 0.00 0.00 83 1015.2
20260505160206 7 44 8.0 16.1 0.00 0.00 0.00 84 1015.2
20260505153205 7 29 12.9 27.4 0.00 0.00 0.00 83 1014.9
20260505152708 8 20 11.3 22.5 0.00 0.00 0.00 83 1014.9
20260505152205 8 26 14.5 32.2 0.00 0.00 0.00 83 1014.8
20260505151705 8 10 11.3 32.2 0.00 0.00 0.00 83 1014.7
20260505151205 8 33 11.3 22.5 0.00 0.00 0.00 82 1014.7
20260505150707 8 34 11.3 19.3 0.00 0.00 0.00 81 1014.7
20260505150205 8 18 11.3 24.1 0.00 0.00 0.00 80 1014.7
20260505140206 8 16 11.3 20.9 0.00 0.00 0.00 82 1014.7
20260505130207 7 32 8.0 20.9 0.00 0.00 0.00 88 1014.6
20260505124705 7 22 8.0 12.9 0.00 0.00 0.00 87 1014.5
20260505124207 7 27 9.7 19.3 0.00 0.00 0.00 87 1014.5
20260505123707 7 14 9.7 22.5 0.00 0.00 0.00 86 1014.5
20260505123205 8 28 8.0 16.1 0.00 0.00 0.00 86 1014.5
20260505122706 8 25 11.3 22.5 0.00 0.00 0.00 85 1014.4
20260505121706 8 27 9.7 19.3 0.00 0.00 0.00 86 1014.3
20260505120705 8 15 11.3 24.1 0.00 0.00 0.00 85 1014.4
20260505120206 8 31 9.7 16.1 0.00 0.00 0.00 85 1014.3
20260505115706 8 31 9.7 20.9 0.00 0.00 0.00 85 1014.3
20260505115207 8 15 6.4 12.9 0.00 0.00 0.00 85 1014.3
20260505114206 8 32 9.7 22.5 0.00 0.00 0.00 85 1014.2
20260505113707 8 15 12.9 20.9 0.00 0.00 0.00 86 1014.2
20260505113205 8 25 9.7 20.9 0.00 0.00 0.00 86 1014.2
20260505112205 8 40 8.0 16.1 0.00 0.00 0.00 86 1014.1
20260505111206 8 11 11.3 20.9 0.00 0.00 0.00 85 1014.1
20260505110207 8 10 8.0 19.3 0.00 0.00 0.00 84 1014.1
20260505102205 9 356 11.3 22.5 0.00 0.00 0.00 82 1013.9
20260505101706 9 39 8.0 16.1 0.00 0.00 0.00 82 1013.9
20260505100705 8 11 8.0 19.3 0.00 0.00 0.00 82 1013.8
20260505100206 8 19 4.8 12.9 0.00 0.00 0.00 82 1013.8
20260505095706 8 5 8.0 11.3 0.00 0.00 0.00 82 1013.9
20260505094707 8 17 4.8 19.3 0.00 0.03 0.00 81 1013.8
20260505094206 8 21 6.4 12.9 0.00 0.03 0.00 80 1013.9
20260505093706 8 18 8.0 19.3 0.00 0.03 0.00 80 1013.9
20260505093205 9 11 12.9 16.1 0.00 0.03 0.00 79 1013.8
20260505092706 9 3 8.0 19.3 0.00 0.03 0.00 78 1013.8
20260505092205 9 8 4.8 19.3 0.00 0.03 0.00 78 1013.8
20260505091206 10 11 4.8 16.1 0.00 0.03 0.00 76 1013.7
20260505090705 10 30 9.7 16.1 0.00 0.03 0.00 76 1013.7
20260505090205 10 21 6.4 12.9 0.00 0.03 0.00 76 1013.7
20260505085205 10 22 3.2 9.7 0.00 0.03 0.00 78 1013.7
20260505084707 9 16 4.8 12.9 0.00 0.03 0.00 77 1013.6
20260505083708 10 351 12.9 16.1 0.00 0.03 0.00 76 1013.7
20260505083206 10 333 12.9 19.3 0.00 0.03 0.00 76 1013.7
20260505082706 10 333 14.5 22.5 0.00 0.03 0.00 77 1013.6
20260505082205 10 343 8.0 16.1 0.00 0.03 0.00 79 1013.6
20260505081705 10 336 11.3 24.1 0.00 0.03 0.00 78 1013.6
20260505080706 9 353 9.7 16.1 0.00 0.03 0.00 79 1013.6
20260505080205 9 348 9.7 20.9 0.00 0.03 0.00 78 1013.6
20260505075705 9 334 16.1 20.9 0.00 0.03 0.00 78 1013.6
20260505075205 9 341 17.7 22.5 0.00 0.03 0.00 78 1013.6
20260505074706 9 341 17.7 32.2 0.00 0.03 0.00 79 1013.5
20260505074206 9 347 11.3 19.3 0.00 0.03 0.00 79 1013.5
20260505073705 8 342 12.9 24.1 0.00 0.03 0.00 79 1013.6